Location: Umburanas
(4.5000°S, 37.9667°W)
Time: 21:08:08
(UTC+00:00)

Cosmos 2322 - Pass Details

Date: 19 November 2019
Orbit: 841 x 854 km, 71.0° (Epoch: 12 December)

Event Time Altitude Azimuth Distance (km) Brightness Sun altitude
Rises 21:19:43 0° 190° (S) 3,418 7.3 -13.1°
Reaches altitude 10° 21:22:11 10° 187° (S) 2,481 6.5 -13.7°
Maximum altitude 21:27:51 66° 105° (ESE) 925 3.7 -15.0°
Enters shadow 21:32:44 14° 25° (NNE) 2,193 5.4 -16.1°
